RH
34 36 36 38 36 34 29 26 27 27 23 22 23 25 24 24 24 25 22 21 21 22 20 22 26 34 38 46 54 49 39 27 21 19 14 14 10 10 26 56 37 24 18 7 4
37 37 37 38 36 31 30 29 28 27 25 25 21 20 23 23 24 26 23 23 22 22 22 21 30 47 49 61 65 60 49 34 29 25 20 18 14 14 12 26 55 34 24 18 7
42 43 43 43 37 38 35 35 34 32 29 30 29 26 25 25 26 25 23 24 23 27 28 34 78 87 91 91 81 71 54 48 39 34 27 23 18 18 10 10 29 56 44 22 19
42 43 44 39 38 36 35 37 34 36 34 31 27 26 22 24 29 21 20 25 30 35 48 73 94 100 93 89 91 84 68 57 46 40 33 27 23 18 11 9 19 42 66 34 20
44 46 42 38 38 36 38 35 31 30 26 26 22 22 20 21 27 25 20 20 25 42 78 97 96 96 83 78 90 88 74 67 56 47 39 35 25 21 16 13 16 25 58 63 31
46 45 41 40 39 38 36 33 31 28 27 25 22 21 18 17 20 19 23 33 51 72 87 96 90 91 85 76 74 90 93 84 69 55 46 39 31 30 19 16 14 21 45 66 58
49 46 40 41 42 39 36 34 32 30 28 25 23 21 18 20 17 18 24 45 95 100 100 99 98 94 93 94 100 93 93 98 90 73 58 51 43 30 23 21 14 13 38 73 72
50 46 42 42 45 40 37 34 34 31 28 24 22 21 15 13 13 16 26 69 100 98 96 99 99 97 96 96 100 98 97 96 83 94 74 88 50 33 30 28 19 12 21 57 80
52 47 43 44 44 36 37 34 32 28 26 24 22 17 12 12 12 13 25 57 94 96 99 99 99 96 88 84 96 93 91 94 89 99 98 90 55 41 38 32 25 18 16 32 69
54 46 45 45 44 37 39 34 30 28 25 24 20 14 12 13 14 17 28 76 100 100 100 100 100 96 89 81 88 100 99 99 91 100 98 93 59 54 46 46 32 25 22 23 35
51 48 46 45 45 44 36 31 29 25 23 23 15 15 15 17 21 31 54 92 100 100 100 100 100 97 100 100 100 96 100 96 93 100 96 100 77 68 58 54 48 29 22 21 22
49 50 44 43 48 45 40 35 30 28 22 18 16 16 20 20 34 78 88 92 99 100 98 100 92 100 100 100 100 98 95 75 98 100 100 100 92 100 62 49 44 44 27 23 21
51 53 43 42 45 44 39 35 33 32 22 16 18 15 24 39 53 75 96 100 92 99 97 100 100 100 99 100 100 95 87 98 100 100 98 98 83 100 98 54 48 49 32 23 20
57 54 42 39 38 38 37 32 32 29 18 19 17 19 22 44 56 79 77 84 90 96 94 97 100 100 95 88 100 99 100 100 100 100 97 100 64 87 93 76 56 44 42 23 17
58 48 46 43 40 41 35 31 32 23 20 18 18 22 36 59 87 99 94 89 91 97 98 100 95 96 100 100 100 88 100 100 100 100 100 100 84 54 84 74 52 38 35 30 20
50 45 40 42 39 36 35 33 29 23 22 17 16 19 46 92 91 83 83 95 100 96 100 100 100 96 83 77 75 82 81 83 84 97 98 77 90 57 65 58 49 42 34 30 25
49 42 40 38 39 39 36 33 28 25 21 19 17 23 56 85 91 91 85 74 68 86 100 100 87 71 53 48 36 36 43 45 43 40 62 72 97 52 54 60 58 48 39 31 28
52 47 41 42 44 38 36 34 31 27 21 16 18 30 41 96 100 93 80 79 96 80 82 86 95 56 44 34 31 31 28 24 21 24 36 42 58 51 56 60 61 48 39 31 28
45 47 43 43 42 38 38 38 35 29 20 15 20 34 47 91 84 88 72 55 50 39 51 69 43 63 53 36 24 24 23 22 21 23 23 25 34 43 51 50 57 47 38 31 27
43 46 45 44 44 42 42 41 34 24 16 22 49 63 68 75 64 64 62 80 83 57 37 49 43 44 34 26 44 47 26 30 79 43 27 21 23 30 40 47 53 57 44 42 34
41 41 51 50 52 47 46 42 31 19 15 24 45 80 71 85 77 77 57 64 75 52 44 56 68 45 42 62 60 50 66 80 100 100 81 28 15 20 29 40 51 66 49 56 56
45 48 51 54 56 50 51 48 29 18 13 33 77 97 84 85 96 92 86 74 67 60 75 78 74 66 77 82 41 53 76 100 100 100 100 64 12 29 24 30 41 55 58 50 48
59 52 50 57 61 58 54 44 27 18 9 25 73 99 96 86 97 100 99 74 75 84 88 74 94 96 73 40 31 79 98 100 100 100 86 97 33 59 44 25 31 43 57 49 49
64 57 57 60 63 62 57 43 28 13 10 15 38 90 96 91 78 85 91 66 55 83 81 95 84 77 31 27 24 46 99 100 100 97 96 100 82 100 100 43 23 33 45 48 51
70 64 66 73 73 72 62 45 34 12 9 10 27 81 91 82 82 88 100 77 55 60 54 77 29 38 41 36 34 25 77 100 100 100 96 100 98 100 100 98 42 26 33 40 43
74 74 69 83 80 75 60 43 21 10 8 10 19 39 60 86 80 81 97 85 56 42 37 35 37 43 46 44 38 30 56 100 100 100 100 95 97 87 100 100 93 35 51 31 27
79 83 78 89 81 73 62 46 23 10 8 12 16 21 42 92 77 86 96 100 83 52 55 47 45 45 40 47 42 41 55 98 100 100 100 94 86 89 100 97 98 96 99 81 44
Wind_Speed
24 27 31 31 32 36 35 38 39 40 41 43 44 46 47 49 50 50 50 50 56 58 59 64 66 64 66 63 59 60 65 61 54 50 45 42 46 48 50 52 51 46 45 42 44
28 33 33 33 34 36 38 39 40 39 41 45 47 49 53 55 57 55 56 54 54 59 63 66 69 69 69 63 64 65 65 56 53 54 52 46 48 50 55 53 53 51 48 48 43
33 36 35 33 34 38 39 42 45 45 47 48 49 51 55 59 58 56 58 59 61 65 70 72 65 61 57 52 57 61 62 49 59 58 57 51 49 52 58 55 51 54 50 51 47
37 37 34 34 38 40 42 47 50 49 51 52 52 54 57 60 60 62 58 61 67 72 75 71 57 51 51 50 51 61 50 54 56 61 60 56 56 56 60 56 53 53 53 54 51
36 35 36 39 42 46 47 49 55 55 55 57 59 60 63 64 57 66 65 65 68 72 67 59 49 44 44 46 53 58 51 60 59 63 61 59 58 58 59 56 55 53 55 54 54
35 37 39 43 46 49 50 54 57 59 61 62 66 67 68 62 62 66 68 69 68 66 58 50 47 46 43 45 52 55 61 65 64 64 64 61 59 66 59 58 57 54 55 56 55
37 39 43 46 51 53 53 56 61 63 63 67 70 70 71 60 65 63 68 68 61 48 42 38 37 41 45 49 57 58 63 64 65 64 62 62 65 63 56 60 60 58 57 58 57
39 42 45 50 54 57 56 61 65 67 67 70 73 72 74 61 60 64 64 58 51 42 36 32 33 34 40 46 53 56 60 64 57 59 63 55 65 56 61 59 61 59 60 59 58
41 45 49 53 56 58 59 64 67 68 69 72 74 72 69 62 57 59 63 61 55 50 42 38 40 36 37 43 47 53 58 58 55 58 62 60 65 56 64 61 61 59 60 60 59
44 48 51 54 56 60 62 66 68 70 73 76 76 73 67 61 58 63 60 47 42 42 37 33 34 36 36 42 43 45 50 52 53 52 52 59 62 57 62 62 62 60 60 60 58
47 50 54 56 59 65 64 68 71 74 77 76 78 63 59 57 56 56 50 35 33 29 27 29 30 32 38 44 43 46 46 45 47 53 54 30 50 62 61 64 64 62 61 61 59
49 53 57 59 61 64 67 72 73 75 77 78 66 64 53 52 48 44 42 37 28 25 23 25 26 32 39 39 40 42 43 38 46 46 47 55 44 41 64 63 65 65 62 61 60
50 55 59 62 63 66 67 73 74 76 80 80 73 75 53 45 45 40 34 29 23 18 19 21 28 29 32 33 34 37 37 38 44 48 54 55 60 53 50 63 64 64 66 63 62
52 57 61 64 65 66 68 72 74 76 80 64 73 58 55 43 36 34 32 29 23 22 19 22 28 31 32 32 34 34 32 36 36 42 49 49 59 62 58 58 62 63 65 64 60
54 59 63 65 65 65 68 72 75 79 80 85 73 66 51 40 31 28 26 22 21 21 21 24 29 31 31 33 36 38 38 38 38 39 40 44 57 55 60 62 61 63 61 64 61
53 59 61 62 64 67 69 74 76 78 71 70 70 57 44 35 30 27 20 17 21 24 27 27 28 30 31 31 34 38 44 46 46 43 48 41 49 59 53 57 57 58 61 64 64
55 61 63 65 66 68 71 75 77 79 81 73 65 49 41 38 29 23 18 17 19 23 25 25 28 30 29 33 34 35 41 47 50 48 47 42 47 58 50 49 55 60 58 62 65
58 64 67 67 67 68 74 77 78 81 75 72 59 46 37 29 24 21 26 18 22 22 26 30 29 27 28 32 37 40 39 40 48 50 52 50 52 47 46 51 51 59 61 60 65
62 66 69 68 69 73 75 78 80 80 75 65 56 47 33 28 30 30 18 15 19 20 24 26 22 30 29 33 44 42 47 46 52 54 58 55 46 46 44 45 51 52 57 60 60
67 69 71 70 70 72 74 76 76 72 65 55 43 41 33 29 27 18 22 25 26 23 23 26 20 24 26 30 39 41 41 38 37 49 55 60 49 48 40 42 47 55 55 53 55
71 72 70 69 69 70 73 75 75 68 62 54 41 39 33 29 29 27 28 30 29 27 27 26 25 24 27 35 37 41 34 31 27 32 41 51 52 43 42 41 42 55 57 57 58
72 73 71 68 68 70 74 75 73 63 58 50 40 40 32 31 30 31 32 27 28 27 24 25 30 30 31 34 36 30 27 33 27 21 31 35 50 45 45 51 47 52 60 56 59
71 72 72 68 68 70 73 72 68 63 54 52 46 43 39 30 37 33 27 23 25 27 28 28 28 28 29 29 28 22 26 24 35 20 30 30 42 36 40 48 51 52 60 61 56
69 72 72 66 68 69 73 69 67 61 56 49 41 42 40 35 32 30 26 24 29 31 25 24 24 22 24 29 28 23 26 21 23 33 27 39 47 37 21 40 52 53 57 60 61
67 71 70 65 67 70 73 70 69 59 55 44 41 40 40 35 29 29 26 28 29 20 20 20 15 19 24 29 29 25 25 19 17 19 30 32 41 42 34 34 49 54 54 56 64
71 70 70 65 68 70 69 68 63 58 50 42 40 39 40 30 33 28 30 30 19 17 20 20 18 23 23 26 28 23 21 28 17 20 25 27 25 39 38 29 44 52 51 53 56
70 71 70 64 68 71 70 67 63 59 50 40 42 41 38 32 39 31 29 24 23 19 21 23 21 22 28 25 27 19 21 28 17 14 16 20 24 23 27 32 44 48 45 49 52
Wind_Direction
320 325 323 324 325 327 326 320 316 314 316 312 309 305 302 300 298 297 294 284 279 277 274 273 273 270 266 263 257 251 251 252 250 248 240 234 240 240 239 236 239 239 243 239 233
314 320 322 322 325 325 323 321 319 315 312 311 310 308 303 300 298 297 292 285 280 276 269 267 265 264 263 258 250 249 250 257 249 244 240 233 236 236 236 234 234 237 240 241 237
318 322 322 323 323 323 325 325 323 318 312 308 305 303 303 300 298 297 293 286 280 273 269 268 273 270 266 260 256 252 256 252 246 243 239 233 231 234 237 232 230 234 236 241 239
318 320 320 322 320 321 321 323 323 318 314 311 308 307 306 304 304 297 292 284 278 274 272 277 276 272 268 259 250 249 251 246 243 243 239 235 229 230 235 232 228 229 235 237 239
320 322 324 322 321 321 321 324 325 322 320 317 316 314 313 311 302 296 292 286 278 275 278 281 277 266 265 260 247 244 245 242 240 242 239 236 230 230 233 236 232 226 231 234 238
321 323 323 321 324 323 322 328 329 326 324 321 320 317 315 319 303 298 292 288 284 281 283 279 276 267 256 251 251 245 241 241 239 238 240 238 231 232 225 232 232 228 227 230 235
322 323 322 323 326 323 325 330 329 327 323 321 320 317 319 313 304 297 290 289 288 282 280 274 260 256 254 245 244 242 241 240 237 241 242 242 232 230 225 232 230 228 227 228 229
321 322 323 325 326 324 329 327 327 325 323 322 322 324 322 313 301 293 290 287 285 279 280 267 257 250 251 250 249 245 243 239 235 242 242 241 234 226 228 227 230 227 228 227 225
320 321 323 325 325 326 329 328 328 326 325 323 324 325 324 315 305 295 290 289 287 285 279 266 264 258 245 244 245 252 248 244 236 239 240 239 231 220 227 228 227 226 229 229 225
322 321 323 327 327 327 329 329 328 328 326 325 327 326 326 316 305 293 292 287 285 289 279 264 255 250 243 241 243 254 254 247 241 239 247 244 233 228 226 227 226 223 226 229 227
322 321 326 328 327 326 327 328 328 328 328 328 330 326 317 311 299 294 294 298 288 284 272 251 247 245 242 247 248 245 246 246 241 242 233 218 239 232 229 228 225 222 222 226 227
320 325 327 327 326 326 328 328 328 328 328 331 331 332 314 309 299 293 299 300 299 290 267 252 245 246 252 252 252 248 248 243 241 242 241 234 214 229 228 227 224 223 220 222 224
323 327 326 326 325 326 328 329 328 328 329 336 336 335 323 308 299 300 302 301 299 279 266 250 250 243 250 255 255 256 253 247 244 234 235 230 225 224 219 226 224 223 221 217 221
327 327 326 326 327 327 329 328 329 329 333 339 338 336 324 306 308 304 301 296 287 277 263 250 256 253 245 251 261 259 259 257 252 252 242 236 236 227 224 221 223 221 221 220 220
327 328 326 327 329 329 329 329 330 332 336 338 338 336 321 310 312 307 306 297 279 270 258 254 253 255 257 256 260 259 267 263 257 251 251 239 243 225 227 224 220 218 218 221 221
330 331 331 330 330 332 331 331 333 337 340 341 339 329 321 310 308 311 310 290 270 260 256 255 258 259 260 260 262 257 260 265 266 262 255 243 245 239 225 227 223 219 218 218 222
334 334 334 334 334 333 332 334 337 339 340 340 336 329 316 307 305 310 312 308 284 271 262 258 258 261 260 258 259 259 261 264 264 265 263 255 247 240 226 220 221 222 219 217 218
333 334 336 336 335 334 335 338 339 339 340 341 333 330 318 306 304 308 313 296 284 285 276 260 267 264 266 271 277 265 263 271 273 268 259 258 255 234 235 222 216 218 221 221 219
333 334 335 336 337 336 337 338 339 338 341 339 332 331 322 297 296 300 300 294 304 284 277 273 263 267 273 288 293 281 267 267 266 259 259 257 252 236 235 226 221 218 220 222 222
334 335 337 337 338 336 338 339 340 339 339 335 325 329 319 297 301 298 298 299 302 296 297 273 263 251 265 280 278 284 280 258 256 257 254 253 242 238 233 229 222 218 217 216 219
332 333 336 337 337 336 338 339 340 339 339 335 326 328 318 293 295 297 298 298 301 300 292 270 260 269 278 273 275 283 265 257 245 256 255 247 236 234 233 228 227 220 214 214 214
331 334 336 338 337 335 337 339 341 338 338 333 325 325 321 300 296 291 292 298 299 293 283 284 284 277 278 280 288 276 252 246 246 252 250 245 223 235 232 227 222 218 214 214 216
331 333 337 338 336 335 335 341 340 341 338 329 324 319 319 307 297 298 295 303 296 283 288 289 281 284 289 289 290 274 248 245 245 255 235 239 231 230 233 226 220 218 215 215 216
329 333 335 338 334 335 336 341 339 343 337 328 322 315 314 317 303 302 302 313 314 292 283 278 284 285 305 317 288 262 253 243 251 255 248 235 232 210 194 215 219 217 213 214 214
331 333 334 336 333 334 336 338 342 340 337 330 322 311 310 315 303 294 294 304 305 280 276 274 281 281 297 315 310 271 243 231 228 239 250 229 237 238 219 204 213 213 210 213 215
332 333 333 334 333 333 336 341 342 337 335 327 321 311 311 309 299 298 296 297 281 277 272 264 280 282 304 309 311 271 253 232 224 227 244 257 245 235 237 233 209 209 209 213 214
332 332 331 333 333 333 335 340 339 337 335 325 317 312 309 296 302 294 302 281 278 272 280 266 277 288 311 300 312 276 262 236 239 226 251 251 242 241 236 232 215 199 201 206 207